Regional Weather Roundup
Issued by NWS

Home | Current Version | Previous Version | Text Only | Print | Product List | Glossary On
Versions: 1 2 3 4 5 6 7 8 9 10 11 12 13 14 15 16 17 18 19 20 21 22 23 24 25 26 27 28 29 30 31 32 33 34 35 36 37 38 39 40 41 42 43 44 45 46 47 48 49 50
000
ASUS44 KFWD 310515
RWRTX
NORTH TEXAS HOURLY WEATHER ROUNDUP
NATIONAL WEATHER SERVICE FORT WORTH TX
1200 AM CDT TUE MAR 31 2015

NOTE: "FAIR" INDICATES FEW OR NO CLOUDS BELOW 12,000 FEET WITH NO
SIGNIFICANT WEATHER AND/OR OBSTRUCTIONS TO VISIBILITY.

TXZ118-119-310600-
DALLAS/FORT WORTH METROPLEX

CITY           SKY/WX    TMP DP  RH WIND       PRES   REMARKS
DFW AIRPORT    MOCLDY    67  63  87 S8        30.01F
DALLAS LOVE    MOCLDY    69  63  81 S12       30.02F
FTW MEACHAM    PTCLDY    69  62  78 S9        30.01F
DAL-EXECUTIVE  PTCLDY    66  62  87 S5        30.02F
FTW-ALLIANCE   MOCLDY    68  62  81 S8        30.01F
FTW-NAS-JRB    PTCLDY    72  63  73 S12       30.05F
FTW-SPINKS     PTCLDY    68  62  79 S7        30.04S
ARLINGTON      PTCLDY    70  61  73 S8        30.02F
ADDISON        PTCLDY    69  63  81 S9        30.04F
MESQUITE       PTCLDY    66  62  88 SE8       30.03F
LANCASTER      PTCLDY    63  60  90 SE6       30.03F
$$

TXZ091>094-102>105-117-120-121-131>134-310600-
NORTH CENTRAL TEXAS

CITY           SKY/WX    TMP DP  RH WIND       PRES   REMARKS
SHRMAN/DENISON PTCLDY    68  65  92 SE7       30.04R
GAINESVILLE    MOCLDY    65  62  89 SE3       30.04S
BOWIE          PTCLDY    65  62  88 SE6       30.01F
BRIDGEPORT     MOCLDY    68  64  86 S5        30.02F
DECATUR        MOCLDY    67  62  82 S7        30.01F
DENTON         MOCLDY    67  63  87 S9        30.01F
MCKINNEY       PTCLDY    64  62  93 S7        30.02F
GREENVILLE     PTCLDY    63  61  94 SE6       30.04F
TERRELL        PTCLDY    65  61  87 SE5       30.04F
WAXAHACHIE     PTCLDY    64  64  98 SE6       30.04F
CLEBURNE       MOCLDY    66  66 100 S7        30.04S
GRANBURY         N/A     71  62  74 S9        30.03F
$$

TXZ083>090-098>101-113>116-127>130-139>142-154-155-310600-
WESTERN NORTH TEXAS

CITY           SKY/WX    TMP DP  RH WIND       PRES   REMARKS
WICHITA FALLS  CLEAR     62  59  90 SE5       29.98F
WF-KICKAPOO    CLEAR     66  61  85 SE7       29.99F
VERNON         CLEAR     60  43  52 NE6       30.01F
ABILENE        MOCLDY    71  59  65 S10       30.02S
ABILENE-DYESS  MOCLDY    69  59  70 S12       30.00F
BRECKENRIDGE   PTCLDY    70  58  66 S7        30.01S
GRAHAM         PTCLDY    68  64  84 SE5       29.98F
MINERAL WELLS  PTCLDY    68  62  81 SE13      29.99F
STEPHENVILLE   MOCLDY    67  61  80 S5        30.06F
COMANCHE       CLOUDY    69  63  80 S14       30.04F
BROWNWOOD      CLOUDY    68  63  83 S10       30.04F
COLEMAN        CLOUDY    69  62  78 S7        30.04F
BRADY          CLEAR     68  61  77 S10       30.06F
$$

TXZ143>147-156>162-174-175-310600-
CENTRAL TEXAS

CITY           SKY/WX    TMP DP  RH WIND       PRES   REMARKS
WACO           CLEAR     64  61  90 S7        30.04F
WACO-MCGREGOR  PTCLDY    64  57  77 S9        30.05F
HILLSBORO      MOCLDY    68  62  79 SE10      30.03F
CORSICANA      MOCLDY    65  61  87 S7        30.06F
MEXIA          CLEAR     64  61  88 S7        30.06S
HEARNE         CLEAR     67  64  88 SE8       30.09S
CAMERON        CLEAR     68  64  85 S12       30.08S
TEMPLE         PTCLDY    64  57  77 S10       30.05F
KILLEEN        PTCLDY    65  61  87 S9        30.05F
KILLEEN-SKYLRK PTCLDY    66  57  72 MISG      30.06F
FORT HOOD      PTCLDY    69  62  79 S13       30.05F
GATESVILLE     PTCLDY    68  63  83 S6        30.07S
HAMILTON       MOCLDY    68  61  77 S9        30.06S
$$

TXZ095>097-106>112-122>126-135>138-148>153-164>167-310600-
EAST TEXAS

CITY           SKY/WX    TMP DP  RH WIND       PRES   REMARKS
SULPHUR SPRNGS PTCLDY    65  62  87 S7        30.07F
MOUNT PLEASANT PTCLDY    64  63  96 SE3       30.07S
GILMER         PTCLDY    65  61  89 CALM      30.06F
MINEOLA        PTCLDY    63  63 100 CALM      30.07S
TYLER          PTCLDY    65  60  84 S8        30.05F
LONGVIEW       PTCLDY    62  60  93 SE3       30.06F
MARSHALL       MOCLDY    62  60  93 CALM      30.09S
ATHENS         PTCLDY    61  59  94 CALM      30.05F
PALESTINE      PTCLDY    67  61  80 SE5       30.08S
JACKSONVILLE   PTCLDY    67  61  80 S9        30.10S
HENDERSON      PTCLDY    61  60  96 CALM      30.08F
NACOGDOCHES    MOCLDY    64  61  88 S6        30.10S
LUFKIN         PTCLDY    68  61  78 S6        30.10S
$$

SUPPLEMENTAL OBSERVATIONS (CENTRAL)

CITY           SKY/WX    TMP DP  RH WIND       PRES   REMARKS
LAKE TEXOMA      N/A     66  63  88 SE8         N/A
PAT MAYSE LAKE   N/A     64  61  88 SE7         N/A
GREENVILLE       N/A     64  59  82 SE5         N/A
CEDAR HILL       N/A     70  63  78 S10         N/A
ATHENS           N/A     63  59  88 S1          N/A
LAKE LIMESTONE   N/A     66  61  82 S9          N/A
MCGREGOR         N/A     63  57  82 S5          N/A
$$

SUPPLEMENTAL OBSERVATIONS (WEST)

CITY           SKY/WX    TMP DP  RH WIND       PRES   REMARKS
COMANCHE         N/A    N/A N/A N/A S14         N/A
HAMBY            N/A     70  59  68 S12         N/A
IVIE RESERVOIR   N/A     70  55  60 S8          N/A
COLORADO BEND    N/A     66  59  77 S7G16       N/A
$$

SUPPLEMENTAL OBSERVATIONS (EAST)

CITY           SKY/WX    TMP DP  RH WIND       PRES   REMARKS
CLARKSVILLE      N/A     64  63  94 S5          N/A
CADDO LAKE       N/A     59  57  94 CALM        N/A
GILMER           N/A     64  59  82 S2          N/A
HENDERSON        N/A     63  57  82 S5          N/A
LUFKIN           N/A     66  61  82 MISG        N/A
N SABINE NF      N/A     63  59  88 MISG        N/A
S SABINE NF      N/A     64  59  82 CALM        N/A
$$

SUPPLEMENTAL OBSERVATIONS ARE A COLLECTION OF AUTOMATED INSTRUMENTS
THAT ARE MAINTAINED BY A VARIETY OF FEDERAL AND STATE AGENCIES.
CERTAIN ELEMENTS...SUCH AS HUMIDITY VALUES AND SUSTAINED WIND
SPEEDS...MAY BE APPROXIMATED.




USA.gov is the U.S. government's official web portal to all federal, state and local government web resources and services.